[Date Prev][Date Next][Thread Prev][Thread Next] - [Date Index][Thread Index][Author Index]
2 Line ISS Keps 5-2
- Subject: [sarex] 2 Line ISS Keps 5-2
- From: "Dave Larsen PhD" <doc@xxxxxxxxxxx>
- Date: Fri, 2 May 2003 03:29:31 -0700
ISS
1 25544U 98067A 03122.13774306 .00028361 00000-0 36452-3 0 9521
2 25544 51.6322 251.6125 0006606 73.0994 279.6615 15.58838023253811
----
Via the sarex mailing list at AMSAT.ORG courtesy of AMSAT-NA.
To unsubscribe, send "unsubscribe sarex" to Majordomo@amsat.org
AMSAT Home